Regional Weather Roundup
Issued by NWS

Home | Current Version | Previous Version | Text Only | Print | Product List | Glossary Off
Versions: 1 2 3 4 5 6 7 8 9 10 11 12 13 14 15 16 17 18 19 20 21 22 23 24 25 26 27 28 29 30 31 32 33 34 35 36 37 38 39 40 41 42 43 44 45 46 47 48 49 50

338
ASUS45 KBOI 260010
RWRID

IDAHO REGIONAL WEATHER ROUNDUP
NATIONAL WEATHER SERVICE BOISE ID
600 PM MDT MON SEP 25 2017

NOTE: "FAIR" INDICATES FEW OR NO CLOUDS BELOW 12000 FEET
WITH NO SIGNIFICANT WEATHER AND/OR OBSTRUCTIONS TO VISIBILITY

IDZ012-014-260100-
SOUTHWEST IDAHO


CITY           SKY/WX    TMP DP  RH WIND       PRES   REMARKS
BOISE          SUNNY     66  32  28 W9        30.06F
CALDWELL       SUNNY     67  35  30 W3        30.06F
MOUNTAIN HOME  MOSUNNY   66  29  25 NW6       30.06F
$$

IDZ016-017-260100-
SOUTHCENTRAL IDAHO


CITY           SKY/WX    TMP DP  RH WIND       PRES   REMARKS
BURLEY         MOSUNNY   59  31  34 CALM      30.09S
JEROME         SUNNY     60  31  33 S6        30.10R
TWIN FALLS     MOSUNNY   59  33  37 N7        30.09S
$$

IDZ019>023-260100-
SOUTHEAST IDAHO


CITY           SKY/WX    TMP DP  RH WIND       PRES   REMARKS
IDAHO FALLS    CLOUDY    54  26  34 NE5       30.13R
POCATELLO      CLOUDY    56  31  38 NW5       30.12S
REXBURG        CLOUDY    53  25  33 S7        30.11S
$$

IDZ006-010-011-018-031-032-260100-
CENTRAL IDAHO MOUNTAINS


CITY           SKY/WX    TMP DP  RH WIND       PRES   REMARKS
MCCALL         CLOUDY    56  34  43 NW9       30.10S
STANLEY          N/A     50  24  36 CALM      30.15R
SALMON         LGT RAIN  53  40  61 SW3       30.13R
CHALLIS        CLOUDY    54  28  36 CALM      30.11S
$$

IDZ002-004-006-007-026-260100-
NORTHERN IDAHO


CITY           SKY/WX    TMP DP  RH WIND       PRES   REMARKS
LEWISTON       MOSUNNY   71  43  36 E6        30.03S
LOWELL           N/A     60  49  66 CALM      30.08F
COEUR D`ALENE  PTSUNNY   64  44  48 SE6       30.06F
MULLAN PASS    CLOUDY    46  37  71 CALM      30.13S
$$




USA.gov is the U.S. government's official web portal to all federal, state and local government web resources and services.